Date,TemperatureHighF,TemperatureAvgF,TemperatureLowF,DewpointHighF,DewpointAvgF,DewpointLowF,HumidityHigh,HumidityAvg,HumidityLow,PressureMaxIn,PressureMinIn,WindSpeedMaxMPH,WindSpeedAvgMPH,GustSpeedMaxMPH,PrecipitationSumIn
2013-1-1,30,0,-12,11,-6,-18,85,76,31,0.00,40.00,10,7,15,0.00
2013-1-2,33,6,-7,14,-2,-11,88,74,28,0.00,40.00,10,6,14,0.00
2013-1-3,43,6,-11,18,-4,-15,88,69,20,0.00,40.00,9,7,14,0.00
2013-1-4,34,8,-4,15,-3,-12,83,63,28,0.00,40.00,12,7,17,0.00
2013-1-5,47,12,-3,21,1,-12,83,64,23,0.00,40.00,12,6,17,0.00
2013-1-6,42,21,3,21,9,-1,90,64,31,0.00,40.00,7,3,10,0.00
2013-1-7,40,17,-2,22,7,-9,92,70,26,0.00,40.00,10,5,15,0.00
2013-1-8,46,23,9,33,16,4,94,78,47,0.00,40.00,11,8,17,0.00
2013-1-9,47,30,12,30,19,8,93,67,40,0.00,40.00,29,15,38,0.00
2013-1-10,39,26,14,29,19,5,96,75,57,0.00,40.00,29,15,44,0.00
2013-1-11,26,11,-10,13,3,-14,83,72,45,0.00,40.00,13,5,27,0.01
2013-1-12,30,-2,-14,8,-9,-18,84,74,34,0.00,40.00,13,8,16,0.01
2013-1-13,12,-5,-19,1,-15,-100,87,74,41,0.00,40.00,18,8,23,0.00
2013-1-14,14,-7,-22,2,-13,-27,80,73,41,0.00,40.00,14,7,19,0.00
2013-1-15,26,9,-6,18,3,-14,89,75,44,0.00,40.00,11,7,15,0.00
2013-1-16,37,16,-4,16,6,-7,89,68,35,0.00,40.00,12,5,15,0.00
2013-1-17,37,15,-5,21,2,-12,85,61,28,0.00,40.00,12,5,15,0.00
2013-1-18,51,12,-2,24,1,-10,81,66,17,0.00,40.00,12,8,16,0.00
2013-1-19,54,14,1,24,2,-8,80,64,13,0.00,40.00,12,8,16,0.00
2013-1-20,49,18,3,17,5,-6,80,62,19,0.00,40.00,12,7,17,0.00
2013-1-21,56,17,2,27,5,-6,78,64,16,0.00,40.00,13,7,16,0.00
2013-1-22,59,26,10,33,9,-2,76,56,18,0.00,40.00,13,7,20,0.00
2013-1-23,48,36,21,30,18,1,70,50,26,0.00,40.00,14,8,23,0.00
2013-1-24,43,38,33,38,33,26,100,83,61,0.00,40.00,13,4,17,0.05
2013-1-25,54,37,31,44,33,26,100,87,45,0.00,40.00,10,3,13,0.01
2013-1-26,48,36,31,42,33,28,100,88,65,0.00,40.00,10,4,16,0.00
2013-1-27,40,32,21,35,29,19,99,89,68,0.00,40.00,18,10,35,0.00
2013-1-28,33,15,-11,19,7,-14,92,75,37,0.00,40.00,8,4,12,0.17
2013-1-29,33,25,19,25,20,16,95,82,71,0.00,40.00,16,6,29,0.02
2013-1-30,43,32,14,32,24,12,90,74,56,0.00,40.00,9,4,22,0.02
2013-1-31,58,34,21,35,25,15,95,74,30,0.00,40.00,12,5,12,0.01
2013-2-1,63,29,17,34,18,9,92,72,17,0.00,40.00,12,7,17,0.00
2013-2-2,43,28,18,30,20,12,90,74,38,0.00,40.00,10,4,14,0.00
2013-2-3,55,34,23,32,23,12,94,72,23,0.00,40.00,8,5,14,0.00
2013-2-4,61,30,18,30,18,1,91,68,11,0.00,40.00,13,7,17,0.00
2013-2-5,56,36,24,29,19,7,79,53,19,0.00,40.00,10,6,16,0.00
2013-2-6,44,34,21,27,20,13,90,59,30,0.00,40.00,12,6,19,0.00
2013-2-7,45,30,17,25,17,7,90,61,33,0.00,40.00,19,11,31,0.00
2013-2-8,37,30,24,31,26,19,99,84,58,0.00,40.00,12,5,24,0.10
2013-2-9,29,24,18,26,21,13,98,89,71,0.00,40.00,12,6,17,0.02
2013-2-10,29,20,7,24,17,4,98,88,70,0.00,40.00,21,8,28,0.01
2013-2-11,29,8,-8,18,0,-11,87,74,38,0.00,40.00,8,3,10,0.01
2013-2-12,42,14,-2,29,6,-6,93,73,29,0.00,40.00,11,6,14,0.01
2013-2-13,51,23,7,34,15,3,95,77,25,0.00,40.00,10,5,15,0.01
2013-2-14,40,25,13,27,19,9,96,78,51,0.00,40.00,13,7,17,0.00
2013-2-15,50,25,11,29,18,7,96,78,31,0.00,40.00,9,5,15,0.00
2013-2-16,67,33,15,24,15,2,91,56,9,0.00,40.00,13,7,18,0.00
2013-2-17,45,32,17,23,17,-1,90,58,28,0.00,40.00,16,7,26,0.00
2013-2-18,52,26,9,24,11,-10,90,59,10,0.00,40.00,13,7,24,0.00
2013-2-19,42,35,30,29,20,14,86,55,38,0.00,40.00,18,12,28,0.00
2013-2-20,33,29,20,28,24,13,97,81,62,0.00,40.00,16,10,27,0.00
2013-2-21,33,22,10,17,10,1,90,61,27,0.00,40.00,14,6,21,0.00
2013-2-22,39,25,12,24,15,3,88,68,34,0.00,40.00,10,6,17,0.00
2013-2-23,32,27,21,27,15,8,86,62,40,0.00,40.00,21,12,40,0.00
2013-2-24,32,24,14,19,13,6,91,65,34,0.00,40.00,18,10,27,0.00
2013-2-25,50,24,7,26,9,0,86,61,15,0.00,40.00,20,8,34,0.00
2013-2-26,33,24,17,17,12,4,91,63,30,0.00,40.00,13,6,21,0.00
2013-2-27,39,23,6,22,9,-4,88,62,16,0.00,40.00,13,5,17,0.00
2013-2-28,58,30,17,31,16,7,86,61,17,0.00,40.00,12,7,19,0.00
2013-3-1,60,36,23,39,25,15,91,70,27,0.00,40.00,9,6,15,0.00
2013-3-2,59,40,26,34,27,21,94,64,27,0.00,40.00,11,7,18,0.00
2013-3-3,45,40,33,38,31,23,90,70,52,0.00,40.00,9,4,16,0.00
2013-3-4,45,36,27,31,24,17,94,65,36,0.00,40.00,8,5,15,0.00
2013-3-5,53,39,25,30,21,12,88,54,26,0.00,40.00,20,10,29,0.00
2013-3-6,54,44,35,32,24,14,76,49,20,0.00,40.00,24,16,38,0.00
2013-3-7,44,35,29,32,25,16,96,71,32,0.00,40.00,13,10,27,0.00
2013-3-8,38,33,30,33,31,28,100,91,70,0.00,40.00,18,8,27,0.02
2013-3-9,46,35,28,32,24,19,100,67,36,0.00,40.00,25,15,35,0.01
2013-3-10,51,36,21,28,18,9,86,52,22,0.00,40.00,13,6,19,0.00
2013-3-11,55,38,23,32,22,10,91,59,23,0.00,40.00,10,6,19,0.00
2013-3-12,61,41,26,34,25,18,92,60,23,0.00,40.00,9,5,16,0.00
2013-3-13,70,45,29,32,24,3,87,55,8,0.00,40.00,10,7,17,0.00
2013-3-14,74,51,32,33,24,9,77,43,8,0.00,40.00,12,6,24,0.00
2013-3-15,68,51,33,31,23,14,73,40,13,0.00,40.00,12,6,19,0.00
2013-3-16,60,47,33,27,18,6,70,37,12,0.00,40.00,14,6,24,0.00
2013-3-17,54,44,31,30,13,2,62,34,12,0.00,40.00,21,10,35,0.00
2013-3-18,55,38,20,17,10,1,74,38,13,0.00,40.00,15,6,24,0.00
2013-3-19,59,45,35,29,20,15,56,39,23,0.00,40.00,12,4,18,0.00
2013-3-20,60,49,39,36,24,17,63,39,22,0.00,40.00,17,9,28,0.00
2013-3-21,50,40,32,34,13,-4,81,38,12,0.00,40.00,12,7,28,0.00
2013-3-22,41,30,15,15,8,-6,76,43,22,0.00,40.00,15,8,27,0.00
2013-3-23,41,28,16,20,1,-10,87,36,12,0.00,40.00,11,5,23,0.00
2013-3-24,49,33,13,13,4,-6,70,34,13,0.00,40.00,16,6,24,0.00
2013-3-25,60,42,29,17,13,5,58,34,15,0.00,40.00,14,6,23,0.00
2013-3-26,61,49,36,24,12,3,42,24,10,0.00,40.00,14,8,30,0.00
2013-3-27,64,44,27,26,17,6,72,43,11,0.00,40.00,12,6,25,0.00
2013-3-28,66,58,48,35,24,13,60,30,15,0.00,40.00,14,8,28,0.00
2013-3-29,66,47,31,35,27,19,79,50,22,0.00,40.00,10,5,26,0.00
2013-3-30,68,48,32,34,24,-100,79,48,18,0.00,40.00,14,6,23,0.00
2013-3-31,62,45,33,44,29,19,85,58,23,0.00,40.00,14,6,51,0.02
2013-4-1,43,38,33,39,35,29,97,89,65,0.00,40.00,13,6,24,0.25
2013-4-2,54,43,35,42,36,29,97,78,43,0.00,40.00,13,6,22,0.12
2013-4-3,66,46,30,38,28,19,95,60,18,0.00,40.00,10,6,17,0.01
2013-4-4,64,50,34,28,24,17,72,40,19,0.00,40.00,17,11,26,0.00
2013-4-5,60,49,38,45,30,17,96,53,21,0.00,40.00,16,6,24,0.11
2013-4-6,59,45,32,32,24,16,79,48,24,0.00,40.00,13,7,26,0.01
2013-4-7,62,47,29,26,15,-3,77,37,9,0.00,40.00,15,8,44,0.00
2013-4-8,50,39,33,35,24,6,99,60,16,0.00,40.00,24,16,34,0.00
2013-4-9,39,34,30,26,21,17,77,58,44,0.00,40.00,24,18,37,0.00
2013-4-10,61,43,26,29,17,9,69,39,18,0.00,40.00,15,8,24,0.00
2013-4-11,60,48,34,41,25,14,93,46,17,0.00,40.00,14,6,23,0.02
2013-4-12,66,45,25,25,13,-1,75,37,7,0.00,40.00,9,5,16,0.01
2013-4-13,68,50,32,27,16,4,43,27,15,0.00,40.00,25,12,40,0.00
2013-4-14,61,43,25,31,11,1,80,30,13,0.00,40.00,16,7,27,0.00
2013-4-15,44,36,30,37,26,19,100,69,41,0.00,40.00,12,5,23,0.00
2013-4-16,33,30,26,30,27,24,100,90,69,0.00,40.00,17,12,25,0.05
2013-4-17,33,29,24,29,23,19,97,80,57,0.00,40.00,15,9,28,0.03
2013-4-18,50,34,17,26,14,6,91,52,20,0.00,40.00,10,5,18,0.00
2013-4-19,57,41,24,39,22,13,83,52,24,0.00,40.00,15,8,45,0.00
2013-4-20,58,45,31,36,23,13,88,48,17,0.00,40.00,10,6,22,0.00
2013-4-21,66,48,25,26,16,9,81,38,11,0.00,40.00,19,8,29,0.00
2013-4-22,61,48,28,27,16,9,70,33,14,0.00,40.00,20,11,30,0.00
2013-4-23,56,39,25,16,8,-7,58,31,9,0.00,40.00,17,8,26,0.00
2013-4-24,59,43,24,17,8,2,60,28,12,0.00,40.00,14,7,21,0.00
2013-4-25,66,45,21,15,6,-5,64,28,6,0.00,40.00,12,6,23,0.00
2013-4-26,71,50,26,17,8,-3,42,22,9,0.00,40.00,13,4,17,0.00
2013-4-27,73,53,32,24,17,9,53,28,11,0.00,40.00,12,8,24,0.00
2013-4-28,76,56,33,23,19,8,59,29,9,0.00,40.00,14,8,31,0.00
2013-4-29,77,56,37,24,20,15,57,29,12,0.00,40.00,14,9,29,0.00
2013-4-30,68,56,38,31,14,-9,48,21,10,0.00,40.00,18,11,31,0.00
2013-5-1,53,38,24,5,-2,-23,32,20,5,0.00,40.00,21,11,34,0.00
2013-5-2,65,46,23,13,2,-4,52,21,7,0.00,40.00,9,6,19,0.00
2013-5-3,72,46,26,8,3,-9,39,21,4,0.00,40.00,16,9,26,0.00
2013-5-4,62,50,29,22,13,2,47,23,12,0.00,40.00,20,7,55,0.00
2013-5-5,70,56,42,25,16,8,44,24,10,0.00,40.00,17,10,35,0.00
2013-5-6,59,50,42,41,28,17,83,46,26,0.00,40.00,23,10,35,0.00
2013-5-7,56,42,31,40,34,29,95,75,41,0.00,40.00,12,6,23,0.03
2013-5-8,62,45,29,41,32,24,99,66,29,0.00,40.00,11,5,17,0.01
2013-5-9,70,52,33,39,29,16,94,51,16,0.00,40.00,15,8,41,0.01
2013-5-10,72,54,33,33,24,-100,71,38,18,0.00,40.00,17,9,27,0.00
2013-5-11,80,57,34,34,23,-100,77,36,11,0.00,40.00,11,6,15,0.00
2013-5-12,85,60,39,30,24,14,65,33,8,0.00,40.00,10,6,17,0.00
2013-5-13,87,61,43,30,23,12,54,29,6,0.00,40.00,14,6,28,0.00
2013-5-14,85,66,43,24,18,9,37,18,7,0.00,40.00,17,8,29,0.00
2013-5-15,81,63,39,33,23,10,49,24,7,0.00,40.00,16,7,34,0.00
2013-5-16,73,55,41,32,8,-100,42,24,8,0.00,40.00,17,8,34,0.00
2013-5-17,59,51,40,49,39,-100,96,69,37,0.00,40.00,12,7,23,0.35
2013-5-18,63,48,32,39,32,25,99,60,25,0.00,40.00,13,6,24,0.01
2013-5-19,55,45,36,41,35,29,95,69,50,0.00,40.00,11,5,29,0.31
2013-5-20,66,48,29,44,29,21,94,53,21,0.00,40.00,12,6,20,0.02
2013-5-21,75,58,38,36,23,13,80,34,10,0.00,40.00,21,12,32,0.00
2013-5-22,78,58,44,25,16,9,38,21,8,0.00,40.00,20,13,41,0.00
2013-5-23,70,49,34,26,14,-1,67,32,6,0.00,40.00,20,11,41,0.00
2013-5-24,73,51,26,18,7,-2,42,20,6,0.00,40.00,16,8,33,0.00
2013-5-25,77,60,43,13,9,1,27,15,7,0.00,40.00,16,12,31,0.00
2013-5-26,75,61,45,16,11,1,28,15,9,0.00,40.00,17,10,34,0.00
2013-5-27,75,52,32,48,17,-5,86,30,4,0.00,40.00,16,7,35,0.00
2013-5-28,56,47,39,44,37,29,93,70,39,0.00,40.00,20,7,27,0.07
2013-5-29,68,50,31,34,25,14,92,48,12,0.00,40.00,17,9,34,0.01
2013-5-30,73,53,32,23,15,7,67,29,8,0.00,40.00,13,8,28,0.00
2013-5-31,74,54,31,26,18,11,60,29,9,0.00,40.00,15,7,23,0.00
2013-6-1,82,58,32,26,16,8,55,24,7,0.00,40.00,9,6,16,0.00
2013-6-2,88,64,40,23,16,3,39,20,4,0.00,40.00,15,8,31,0.00
2013-6-3,85,66,48,37,27,18,52,27,9,0.00,40.00,14,9,22,0.00
2013-6-4,84,62,40,26,19,7,48,23,6,0.00,40.00,12,6,37,0.00
2013-6-5,85,66,40,30,20,7,53,22,5,0.00,40.00,10,5,19,0.00
2013-6-6,87,66,42,30,20,14,39,20,7,0.00,40.00,11,6,21,0.00
2013-6-7,90,69,44,30,21,12,41,20,7,0.00,40.00,16,9,29,0.00
2013-6-8,90,71,45,30,23,14,46,21,7,0.00,40.00,13,7,22,0.00
2013-6-9,96,72,48,34,24,12,40,21,7,0.00,40.00,17,8,30,0.00
2013-6-10,86,75,59,34,15,5,25,11,6,0.00,40.00,24,14,41,0.00
2013-6-11,84,66,46,35,19,1,38,17,9,0.00,40.00,18,7,29,0.00
2013-6-12,85,69,45,39,24,12,63,26,7,0.00,40.00,27,15,47,0.00
2013-6-13,83,68,49,28,13,-7,35,14,4,0.00,40.00,25,12,41,0.00
2013-6-14,82,53,32,26,11,-7,34,20,4,0.00,40.00,15,8,28,0.00
2013-6-15,84,58,36,25,10,-6,47,22,4,0.00,40.00,15,7,29,0.00
2013-6-16,79,52,39,6,-2,-14,17,11,3,0.00,40.00,13,5,16,0.00
2013-6-17,87,58,40,12,4,-11,20,13,2,0.00,40.00,11,8,21,0.00
2013-6-18,86,65,42,11,4,-4,22,10,3,0.00,40.00,21,10,34,0.00
2013-6-19,72,60,50,16,8,-13,22,14,3,0.00,40.00,18,8,36,0.00
2013-6-20,77,47,32,18,12,5,38,26,6,0.00,40.00,9,6,31,0.00
2013-6-22,82,70,53,19,13,7,24,12,6,0.00,40.00,11,6,17,0.00
2013-6-23,85,62,38,25,16,11,39,20,6,0.00,40.00,19,10,35,0.00
2013-6-24,73,64,52,40,28,18,46,27,16,0.00,40.00,17,9,35,0.00
2013-6-25,86,67,41,40,34,28,71,35,13,0.00,40.00,16,7,33,0.00
2013-6-26,92,76,51,42,34,27,57,26,10,0.00,40.00,13,8,23,0.00
2013-6-27,97,78,54,40,32,26,47,23,8,0.00,40.00,9,5,20,0.00
2013-6-28,93,76,58,45,34,27,40,23,11,0.00,40.00,18,6,46,0.00
2013-6-29,97,74,52,45,30,17,58,29,6,0.00,40.00,12,6,35,0.00
2013-6-30,98,78,54,39,30,21,43,20,7,0.00,40.00,18,6,35,0.00
2013-7-1,101,78,59,38,32,25,37,21,8,0.00,40.00,12,6,29,0.00
2013-7-2,97,75,55,38,32,26,44,25,9,0.00,40.00,18,9,30,0.00
2013-7-3,94,74,57,49,40,31,43,31,14,0.00,40.00,17,10,26,0.00
2013-7-4,93,75,55,49,43,34,63,36,13,0.00,40.00,11,5,47,0.00
2013-7-5,92,70,53,56,46,32,75,48,13,0.00,40.00,15,8,38,0.00
2013-7-6,90,73,60,56,40,27,71,38,11,0.00,40.00,22,12,36,0.00
2013-7-7,87,75,64,48,37,29,49,26,15,0.00,40.00,29,13,48,0.00
2013-7-8,91,69,55,46,31,10,60,34,6,0.00,40.00,16,8,31,0.00
2013-7-9,88,64,53,16,12,8,22,14,7,0.00,40.00,10,6,15,0.00
2013-7-10,95,74,50,30,14,-100,19,11,4,0.00,40.00,19,8,35,0.00
2013-7-11,75,68,59,54,39,25,71,39,17,0.00,40.00,18,8,25,0.01
2013-7-12,89,68,49,54,44,29,90,50,12,0.00,40.00,9,5,26,0.01
2013-7-13,89,72,56,49,40,30,64,35,13,0.00,40.00,17,6,35,0.00
2013-7-14,92,69,48,41,33,21,63,34,9,0.00,40.00,10,6,23,0.00
2013-7-15,90,73,51,58,42,32,64,36,14,0.00,40.00,12,7,24,0.00
2013-7-16,92,86,73,43,36,29,25,18,11,0.00,40.00,15,10,25,0.02
2013-7-17,94,78,54,41,31,24,53,22,9,0.00,40.00,10,5,23,0.00
2013-7-18,98,81,52,40,28,18,46,18,7,0.00,40.00,14,6,16,0.00
2013-7-19,95,78,64,42,35,27,38,23,11,0.00,40.00,14,5,28,0.00
2013-7-20,97,74,55,38,32,24,45,25,9,0.00,40.00,18,7,35,0.00
2013-7-21,95,75,52,41,32,22,49,25,8,0.00,40.00,18,8,35,0.00
2013-7-22,99,72,52,46,36,22,55,33,7,0.00,40.00,17,8,29,0.00
2013-7-23,91,69,58,57,43,31,54,40,12,0.00,40.00,24,5,38,0.00
2013-7-24,87,72,59,51,45,35,65,41,16,0.00,40.00,17,6,25,0.00
2013-7-25,92,71,51,48,38,25,80,41,9,0.00,40.00,11,7,23,0.00
2013-7-26,87,73,59,49,38,32,49,30,16,0.00,40.00,14,7,32,0.00
2013-7-27,74,65,55,61,54,49,88,69,42,0.00,40.00,13,5,21,0.06
2013-7-28,87,63,47,54,44,35,92,59,16,0.00,40.00,24,7,24,0.04
2013-7-29,83,66,55,53,43,31,80,47,17,0.00,40.00,18,5,37,0.04
2013-7-30,89,72,52,44,34,22,62,32,10,0.00,40.00,15,8,31,0.01
2013-7-31,91,75,57,41,32,23,50,25,9,0.00,40.00,20,9,32,0.00
2013-8-1,89,71,55,34,20,2,40,19,4,0.00,40.00,21,9,34,0.00
2013-8-2,88,65,42,19,12,7,29,15,5,0.00,40.00,14,9,28,0.00
2013-8-3,87,67,49,20,13,8,23,13,5,0.00,40.00,13,7,25,0.00
2013-8-4,90,73,52,34,19,9,26,15,7,0.00,40.00,14,8,25,0.00
2013-8-5,93,73,52,35,26,15,44,21,6,0.00,40.00,14,7,27,0.00
2013-8-6,92,72,50,23,19,11,27,15,5,0.00,40.00,11,6,31,0.00
2013-8-7,89,74,52,23,19,13,30,14,7,0.00,40.00,16,9,29,0.00
2013-8-8,85,67,48,22,13,6,26,14,5,0.00,40.00,15,9,29,0.00
2013-8-9,83,67,47,26,16,11,28,16,7,0.00,40.00,23,11,34,0.00
2013-8-10,59,59,59,20,20,19,22,22,21,0.00,40.00,8,5,13,0.00